CAPE
0 0 0 1 0 5 15 1 0 0 0 0 0 0 0 0 0 3 8 20 22 29
0 0 5 0 9 28 40 16 0 10 10 0 0 0 0 0 0 11 12 3 18 24
0 0 1 2 2 14 22 17 8 0 4 12 0 0 0 0 0 14 3 1 12 17
0 0 0 0 0 0 15 2 7 0 0 6 0 0 0 0 1 1 0 0 0 0
0 0 0 0 0 0 0 0 0 0 0 0 0 0 0 0 0 0 0 0 0 0
0 0 0 0 0 0 0 0 0 0 0 0 0 0 2 0 0 1 1 2 0 0
0 0 0 0 0 0 0 0 0 0 0 0 0 0 0 0 0 1 0 1 1 1
0 0 0 0 0 1 4 7 0 0 0 0 0 0 1 2 1 0 1 2 2 1
0 0 0 0 0 0 9 9 26 14 13 8 0 0 0 1 0 0 0 0 0 0
0 0 0 0 0 0 0 13 4 4 21 6 1 0 0 1 1 0 0 0 0 1
0 0 0 0 0 0 0 0 1 6 8 1 0 0 0 0 4 3 2 2 0 0
0 0 0 0 0 0 0 0 0 0 1 3 0 0 0 2 0 1 0 0 0 0
0 0 0 0 0 0 0 0 0 0 0 0 0 0 0 0 1 2 0 0 0 0
0 0 0 0 0 0 0 0 0 0 0 0 0 0 0 1 1 0 0 0 0 0
CIN
-0 -0 -0 -10 -11 -83 -68 -19 -0 -0 -0 -0 -0 -0 -0 -0 -1 -71 -66 -54 -68 -69
-0 -0 -78 -13 -89 -66 -53 -49 -0 -57 -54 -0 -0 -0 -0 -0 -0 -87 -81 -78 -83 -85
-0 -0 -60 -92 -91 -79 -59 -59 -63 -0 -58 -77 -0 -0 -0 -0 -6 -89 -105 -105 -107 -90
-0 -0 -0 -0 -0 -4 -57 -16 -68 -0 -0 -70 -0 -0 -0 -0 -44 -77 -0 -0 -0 -39
-0 -0 -0 -0 -0 -12 -3 -0 -0 -0 -0 -0 -0 -3 -0 -0 -0 -0 -0 -0 -6 -36
-0 -0 -0 -0 -0 -0 -0 -0 -0 -0 -0 -0 -0 -0 -0 -0 -0 -0 -0 -0 -0 -0
-0 -0 -0 -0 -0 -0 -0 -0 -0 -0 -0 -0 -0 -0 -0 -0 -2 -3 -1 -0 -0 -0
-0 -0 -0 -0 -0 -68 -56 -54 -0 -0 -0 -0 -0 -0 -0 -0 -0 -2 -1 -0 -4 -0
-0 -0 -0 -0 -0 -0 -64 -48 -43 -46 -60 -65 -0 -0 -0 -0 -0 -0 -0 -0 -6 -0
-0 -0 -0 -0 -0 -0 -0 -67 -79 -68 -22 -34 -45 -0 -0 -0 -0 -1 -0 -0 -0 -0
-0 -0 -0 -0 -0 -0 -0 -0 -35 -75 -44 -32 -0 -28 -0 -0 -56 -18 -0 -8 -0 -0
-0 -0 -0 -0 -0 -0 -0 -0 -0 -0 -52 -72 -0 -0 -0 -23 -0 -24 -0 -0 -1 -0
-0 -0 -0 -0 -0 -0 -0 -0 -0 -0 -0 -0 -0 -0 -0 -45 -56 -36 -0 -0 -52 -0
-0 -0 -0 -0 -0 -0 -0 -0 -0 -0 -0 -0 -0 -0 -29 -70 -41 -32 -0 -0 -0 -0
Wind_Speed
15 17 20 19 18 18 17 17 19 18 21 20 20 23 26 25 23 23 24 23 18 20
16 18 19 19 18 17 17 19 21 22 22 16 15 18 22 22 20 22 21 19 21 20
16 18 20 17 18 18 16 20 22 23 24 16 15 18 18 18 21 19 19 18 20 19
17 17 20 18 18 17 17 22 23 25 24 19 17 17 18 19 19 18 16 18 18 18
17 17 20 20 20 19 21 23 23 25 26 21 16 17 16 17 19 16 14 13 10 9
17 18 20 22 23 21 22 24 24 24 17 13 11 5 7 7 6 9 9 7 7 10
17 19 20 22 23 21 23 24 24 24 21 7 4 4 7 7 5 7 7 7 3 2
20 22 22 24 24 24 23 25 25 25 17 15 6 3 3 5 4 3 5 4 3 5
23 23 23 23 23 23 23 25 25 23 23 19 4 4 4 4 6 8 7 2 3 9
23 23 23 23 25 25 21 24 24 24 21 20 20 8 2 4 8 11 13 8 4 1
24 24 24 24 25 24 24 25 26 26 24 23 25 25 9 9 6 3 9 8 7 13
24 24 25 24 24 22 25 26 28 27 29 30 30 30 30 11 7 8 8 3 4 16
24 24 25 25 24 25 25 27 28 28 27 30 31 30 33 33 34 29 17 21 23 28
24 24 24 25 25 26 27 27 28 28 26 26 28 29 31 33 34 36 34 36 36 34
Wind_Direction
44 37 27 33 40 52 63 105 115 100 123 187 203 203 195 193 202 203 207 209 229 223
50 43 41 50 47 60 93 120 125 126 148 209 214 210 200 201 211 206 211 222 210 212
57 53 44 72 75 93 165 144 131 136 156 207 212 207 209 214 202 214 220 224 214 215
59 65 47 77 98 138 151 136 136 139 166 197 208 213 212 211 214 217 223 216 214 208
69 70 51 75 100 129 119 119 121 130 155 189 213 214 222 218 212 223 225 226 232 68
79 70 51 78 92 116 119 113 112 116 90 225 236 358 264 259 260 231 235 247 257 244
92 86 86 106 114 119 117 109 110 105 97 32 324 313 247 245 263 246 250 255 296 9
102 105 116 102 102 111 127 108 117 109 83 74 37 322 40 237 259 268 254 272 14 47
106 101 106 106 95 102 85 99 102 104 100 88 309 47 259 271 245 239 241 314 4 65
116 109 103 95 97 102 77 114 115 107 99 109 119 80 325 287 249 230 221 234 63 158
125 117 113 120 115 116 124 112 117 110 133 139 135 139 247 250 252 294 239 232 82 96
131 125 122 124 127 134 127 121 115 119 105 100 113 115 135 203 218 208 195 171 119 103
136 130 128 125 122 130 130 125 126 123 126 112 113 128 129 145 147 161 174 173 172 169
139 135 132 129 129 119 115 115 121 123 136 136 133 137 136 139 145 142 152 144 144 152